Location: Newark
(34.1333°N, 7.9667°W)
Time: 17:42:42
(UTC+00:00)

Transit 2A - Pass Details

Date: 18 June 2021
Orbit: 598 x 960 km, 66.7° (Epoch: 23 July)

Event Time Altitude Azimuth Distance (km) Brightness Sun altitude
Rises 03:33:35 0° 319° (NW) 3,143 9.3 -18.2°
Reaches altitude 10° 03:36:07 10° 308° (NW) 2,277 8.4 -17.9°
Maximum altitude 03:40:34 29° 250° (WSW) 1,446 6.9 -17.2°
Enters shadow 03:41:12 28° 238° (WSW) 1,479 6.9 -17.1°
Drops below altitude 10° 03:45:22 10° 193° (SSW) 2,474 - -16.5°
Sets 03:48:15 0° 182° (S) 3,465 - -16.1°
